TimeMST,TemperatureF,Dew PointF,Humidity,Sea Level PressureIn,VisibilityMPH,Wind Direction,Wind SpeedMPH,Gust SpeedMPH,PrecipitationIn,Events,Conditions,WindDirDegrees,DateUTC
12:53 AM,30.9,25.0,79,30.30,10.0,ENE,10.4,-,N/A,,Clear,60,2012-11-24 07:53:00
1:53 AM,30.0,25.0,82,30.29,10.0,NE,11.5,-,N/A,,Clear,40,2012-11-24 08:53:00
2:53 AM,32.0,25.0,75,30.27,10.0,NE,9.2,-,N/A,,Clear,50,2012-11-24 09:53:00
3:53 AM,34.0,25.0,70,30.25,10.0,ENE,9.2,-,N/A,,Clear,60,2012-11-24 10:53:00
4:53 AM,32.0,25.0,75,30.25,10.0,ENE,8.1,-,N/A,,Clear,70,2012-11-24 11:53:00
5:53 AM,32.0,25.0,75,30.26,10.0,ENE,8.1,-,N/A,,Clear,60,2012-11-24 12:53:00
6:53 AM,33.1,25.0,72,30.26,10.0,East,5.8,-,N/A,,Clear,100,2012-11-24 13:53:00
7:53 AM,33.1,25.0,72,30.27,10.0,East,8.1,-,N/A,,Clear,100,2012-11-24 14:53:00
8:53 AM,36.0,25.0,64,30.26,10.0,East,8.1,-,N/A,,Clear,100,2012-11-24 15:53:00
9:53 AM,44.1,26.1,49,30.25,10.0,Calm,Calm,-,N/A,,Clear,0,2012-11-24 16:53:00
10:53 AM,46.9,25.0,42,30.24,10.0,South,3.5,-,N/A,,Overcast,180,2012-11-24 17:53:00
11:53 AM,50.0,24.1,36,30.22,10.0,WSW,6.9,-,N/A,,Overcast,250,2012-11-24 18:53:00
12:53 PM,53.1,24.1,32,30.18,10.0,SW,8.1,-,N/A,,Mostly Cloudy,220,2012-11-24 19:53:00
1:53 PM,54.0,26.1,34,30.16,10.0,West,8.1,-,N/A,,Mostly Cloudy,260,2012-11-24 20:53:00
2:53 PM,55.0,27.0,34,30.14,10.0,West,9.2,-,N/A,,Mostly Cloudy,280,2012-11-24 21:53:00
3:53 PM,52.0,28.0,40,30.14,10.0,West,12.7,-,N/A,,Scattered Clouds,280,2012-11-24 22:53:00
4:53 PM,48.9,30.0,48,30.14,10.0,WSW,3.5,-,N/A,,Clear,250,2012-11-24 23:53:00
5:53 PM,46.9,32.0,56,30.13,10.0,SW,6.9,-,N/A,,Clear,220,2012-11-25 00:53:00
7:53 PM,43.0,30.9,62,30.11,10.0,SW,4.6,-,N/A,,Mostly Cloudy,230,2012-11-25 02:53:00
8:53 PM,42.1,30.9,65,30.10,10.0,SW,4.6,-,N/A,,Scattered Clouds,230,2012-11-25 03:53:00
9:53 PM,39.9,32.0,73,30.08,10.0,NW,4.6,-,N/A,,Overcast,320,2012-11-25 04:53:00
10:53 PM,39.9,32.0,73,30.05,10.0,NW,3.5,-,N/A,,Overcast,320,2012-11-25 05:53:00
11:53 PM,39.0,32.0,76,30.03,10.0,North,4.6,-,N/A,,Overcast,350,2012-11-25 06:53:00